Change the Weather History Date:

Monday, December 29, 2014

  Actual Average Record
Temperature  
Mean Temperature 60 °F -  
Max Temperature 65 °F 62 °F 75 °F (1971)
Min Temperature 55 °F 44 °F 21 °F (1983)
Degree Days  
Heating Degree Days 5    
Growing Degree Days 10 (Base 50)    
Moisture  
Dew Point 57 °F    
Average Humidity 95    
Maximum Humidity 100    
Minimum Humidity 74    
Precipitation  
Precipitation 0.00 in - - ()
Sea Level Pressure  
Sea Level Pressure 30.11 in    
Wind  
Wind Speed 6 mph (NNE)    
Max Wind Speed 9 mph    
Max Gust Speed -    
Visibility 9 miles    
Events Fog , Rain    
Averages and records for this station are not official NWS values.
T = Trace of Precipitation, MM = Missing Value Source: NWS Daily Summary

Daily Weather History Graph

Daily Weather History Graph

Search for Another Location

Airport or City:

Trip Planner

Search our weather history database for the weather conditions in past years. The results will help you decide how hot, cold, wet, or windy it might be!

Date:

Astronomy

Dec. 29, 2014 Rise Set
Actual Time 6:51 AM CST 5:04 PM CST
Civil Twilight 6:25 AM CST 5:30 PM CST
Nautical Twilight 5:55 AM CST 6:00 PM CST
Astronomical Twilight 5:25 AM CST 6:29 PM CST
Moon 12:22 PM CST (12/29) 12:28 AM CST (12/29)
Length of Visible Light 11h 05m
Length of Day
10h 12m
First Quarter, 61% of the Moon is Illuminated
Dec 29
First Quarter
Jan 4
Full
Jan 13
Last Quarter
Jan 20
New
Jan 26
First Quarter

Hourly Weather History & Observations

Time (CST) Temp. Dew Point Humidity Pressure Visibility Wind Dir Wind Speed Gust Speed Precip Events Conditions
12:58 AM 57.4 °F 57.4 °F 100% 30.06 in 10.0 mi NNE 9.2 mph - N/A   Scattered Clouds
1:45 AM 57.2 °F 57.2 °F 100% 30.04 in 10.0 mi NE 8.1 mph - N/A Rain Light Rain
1:54 AM 57.2 °F 57.2 °F 100% 30.05 in 10.0 mi NE 8.1 mph - N/A   Mostly Cloudy
1:58 AM 57.4 °F 57.4 °F 100% 30.06 in 10.0 mi ENE 8.1 mph - 0.00 in   Scattered Clouds
2:01 AM 57.2 °F 57.2 °F 100% 30.05 in 10.0 mi ENE 8.1 mph - N/A Rain Light Rain
2:11 AM 57.2 °F 57.2 °F 100% 30.03 in 10.0 mi ENE 8.1 mph - N/A   Partly Cloudy
2:58 AM 57.7 °F 57.7 °F 100% 30.03 in 10.0 mi East 6.9 mph - 0.00 in   Partly Cloudy
3:58 AM 57.6 °F 57.6 °F 100% 30.05 in 10.0 mi NNE 2.3 mph - N/A   Mostly Cloudy
4:58 AM 57.7 °F 57.6 °F 99% 30.08 in 10.0 mi NW 6.9 mph - N/A   Overcast
5:08 AM 57.2 °F 57.2 °F 100% 30.06 in 10.0 mi NNW 6.9 mph - N/A   Overcast
5:53 AM 57.2 °F 57.2 °F 100% 30.08 in 10.0 mi NW 4.6 mph - N/A   Overcast
5:58 AM 57.2 °F 57.2 °F 100% 30.09 in 10.0 mi NW 5.8 mph - N/A   Mostly Cloudy
6:13 AM 57.2 °F 57.2 °F 100% 30.08 in 10.0 mi North 3.5 mph - N/A   Mostly Cloudy
6:58 AM 57.0 °F 57.0 °F 100% 30.12 in 10.0 mi North 4.6 mph - N/A   Overcast
7:13 AM 57.2 °F 57.2 °F 100% 30.11 in 10.0 mi North 5.8 mph - N/A   Overcast
7:18 AM 57.2 °F 57.2 °F 100% 30.11 in 10.0 mi North 5.8 mph - N/A   Overcast
7:38 AM 57.2 °F 57.2 °F 100% 30.12 in 10.0 mi NNW 5.8 mph - N/A   Overcast
7:43 AM 57.2 °F 57.2 °F 100% 30.13 in 10.0 mi NNW 8.1 mph - N/A   Overcast
7:58 AM 57.0 °F 57.0 °F 100% 30.15 in 10.0 mi NNW 5.8 mph - N/A   Overcast
8:58 AM 56.8 °F 56.8 °F 100% 30.15 in 10.0 mi North 5.8 mph - N/A   Overcast
9:03 AM 57.2 °F 57.2 °F 100% 30.14 in 10.0 mi NNE 6.9 mph - N/A   Overcast
9:18 AM 57.2 °F 57.2 °F 100% 30.15 in 10.0 mi North 5.8 mph - N/A   Overcast
9:58 AM 57.7 °F 57.7 °F 100% 30.16 in 10.0 mi NNE 5.8 mph - N/A   Overcast
10:08 AM 57.2 °F 57.2 °F 100% 30.15 in 10.0 mi NNE 5.8 mph - N/A   Overcast
10:38 AM 59.0 °F 59.0 °F 100% 30.14 in 10.0 mi NNE 4.6 mph - N/A   Overcast
10:58 AM 59.0 °F 58.1 °F 97% 30.15 in 10.0 mi North 5.8 mph - N/A   Overcast
11:58 AM 59.7 °F 57.7 °F 93% 30.11 in 10.0 mi North 5.8 mph - N/A   Overcast
12:28 PM 60.8 °F 57.2 °F 88% 30.08 in 10.0 mi North 6.9 mph - N/A   Overcast
12:48 PM 62.6 °F 57.2 °F 82% 30.07 in 10.0 mi North 4.6 mph - N/A   Mostly Cloudy
12:58 PM 61.9 °F 57.4 °F 85% 30.08 in 10.0 mi NE 3.5 mph - N/A   Overcast
1:13 PM 62.6 °F 57.2 °F 82% 30.07 in 10.0 mi North 5.8 mph - N/A   Scattered Clouds
1:58 PM 64.9 °F 56.5 °F 74% 30.06 in 10.0 mi Variable 3.5 mph - N/A   Partly Cloudy
2:56 PM 64.4 °F 57.2 °F 77% 30.05 in 10.0 mi NE 4.6 mph - N/A   Overcast
2:58 PM 65.1 °F 56.7 °F 74% 30.06 in 10.0 mi NE 3.5 mph - N/A   Overcast
3:58 PM 63.0 °F 57.2 °F 81% 30.07 in 10.0 mi ENE 6.9 mph - N/A   Overcast
4:58 PM 60.6 °F 56.8 °F 87% 30.09 in 10.0 mi ENE 4.6 mph - N/A   Overcast
5:08 PM 60.8 °F 57.2 °F 88% 30.08 in 10.0 mi NE 5.8 mph - N/A   Overcast
5:58 PM 60.1 °F 56.5 °F 88% 30.11 in 10.0 mi NNE 4.6 mph - N/A   Overcast
6:48 PM 60.8 °F 57.2 °F 88% 30.12 in 10.0 mi NE 2.3 mph - N/A   Overcast
6:58 PM 60.1 °F 56.5 °F 88% 30.13 in 10.0 mi NE 2.3 mph - N/A   Mostly Cloudy
7:53 PM 60.8 °F 57.2 °F 88% 30.14 in 10.0 mi North 2.3 mph - N/A   Overcast
7:58 PM 60.1 °F 56.5 °F 88% 30.15 in 10.0 mi NNE 3.5 mph - N/A   Mostly Cloudy
8:08 PM 59.0 °F 57.2 °F 94% 30.14 in 10.0 mi NE 2.3 mph - N/A   Mostly Cloudy
8:13 PM 59.0 °F 57.2 °F 94% 30.15 in 10.0 mi Calm Calm - N/A   Mostly Cloudy
8:18 PM 59.0 °F 57.2 °F 94% 30.15 in 10.0 mi NNE 1.2 mph - N/A   Mostly Cloudy
8:58 PM 59.4 °F 56.5 °F 90% 30.15 in 10.0 mi ENE 1.2 mph - N/A   Mostly Cloudy
9:58 PM 56.5 °F 56.1 °F 99% 30.16 in 10.0 mi ENE 3.5 mph - N/A   Clear
10:58 PM 56.7 °F 56.7 °F 100% 30.16 in 10.0 mi NNW 5.8 mph - N/A   Mostly Cloudy
11:03 PM 57.2 °F 57.2 °F 100% 30.15 in 10.0 mi North 3.5 mph - N/A   Scattered Clouds
11:38 PM 55.4 °F 55.4 °F 100% 30.15 in 2.5 mi North 6.9 mph - N/A   Clear
11:43 PM 55.4 °F 55.4 °F 100% 30.15 in 0.5 mi North 4.6 mph - N/A Fog Fog
11:48 PM 55.4 °F 55.4 °F 100% 30.16 in 0.2 mi North 3.5 mph - N/A Fog Fog
11:53 PM 55.4 °F 55.4 °F 100% 30.16 in 0.5 mi North 5.8 mph - N/A Fog Fog
11:58 PM 55.2 °F 55.2 °F 100% 30.17 in 0.5 mi NNW 6.9 mph - N/A Fog Fog